Theta_e
273 278 278 278 276 277 276 279 272 275 273 282 283 283 282 285 285 284 284 284 283 278 280 279 280 285 285 285 285 288 287 287 286 287 287 288 288 289 290 290 290 290 290 291
268 273 275 274 277 276 274 276 278 280 279 286 287 285 282 280 284 283 283 284 283 281 279 277 277 281 285 282 285 286 287 286 286 286 286 286 287 287 288 288 288 288 288 288
267 270 268 271 273 276 277 279 278 273 280 287 284 287 285 285 285 283 287 288 283 283 279 278 279 283 283 284 285 286 285 286 286 285 284 285 285 285 285 285 286 286 286 287
267 271 268 280 283 280 279 280 283 284 285 289 288 289 289 290 289 289 289 288 286 285 284 282 282 279 283 284 284 283 285 285 285 285 284 284 284 284 283 283 283 284 285 285
266 266 276 278 281 280 279 280 285 284 286 288 289 288 288 291 291 290 290 288 286 285 284 283 282 283 283 282 282 281 281 281 283 283 284 283 282 282 281 281 281 282 283 283
267 267 268 279 282 287 286 277 289 288 287 288 287 282 284 290 291 291 290 288 285 283 283 282 281 282 282 281 280 279 280 281 281 282 281 281 281 280 281 281 281 281 282 281
269 268 276 283 285 288 274 280 287 290 289 288 286 287 287 289 290 290 288 286 285 283 282 281 280 281 280 280 279 280 279 280 280 281 281 281 280 281 280 280 280 279 280 280
272 268 272 285 284 282 286 286 288 288 289 289 290 287 285 286 287 288 286 284 284 282 281 279 280 281 280 279 278 277 277 276 276 277 280 281 278 278 278 278 276 276 276 277
278 278 283 288 286 289 289 287 287 288 289 290 290 289 287 286 286 285 284 283 283 281 278 275 275 276 277 275 275 274 272 271 273 275 278 279 277 276 276 275 275 276 277 276
277 283 283 283 286 287 289 288 289 290 289 289 289 289 289 286 286 285 283 282 279 278 277 275 274 275 274 274 274 272 271 272 273 273 274 275 279 279 276 274 274 276 275 274
277 282 282 284 283 286 286 286 288 289 290 289 289 289 289 287 285 285 283 278 279 280 277 277 274 273 271 272 274 276 276 277 275 274 274 274 276 276 277 276 277 272 271 273
280 284 285 286 286 286 285 285 286 285 286 288 288 288 287 286 285 284 282 279 278 278 277 277 275 274 272 272 273 276 280 280 278 275 273 274 273 273 282 280 282 283 283 276
286 285 284 284 282 282 285 286 285 284 285 286 284 287 283 285 282 282 280 280 280 280 281 277 277 276 275 273 274 278 279 276 276 276 275 274 272 271 274 278 280 280 281 281
284 282 284 282 285 283 283 284 280 278 280 282 284 278 283 284 275 282 281 283 283 280 279 279 279 278 276 274 274 277 279 274 277 277 277 274 274 274 272 270 268 265 275 276
285 285 287 282 279 280 279 276 278 281 280 279 279 283 280 281 284 286 287 284 282 282 281 279 279 280 275 274 274 276 280 278 278 275 276 276 273 273 273 273 272 265 263 272
285 284 285 281 286 286 279 277 279 283 281 282 279 279 283 284 284 284 283 281 281 281 282 281 281 282 277 275 275 276 279 277 277 278 275 274 273 272 268 271 270 271 269 269
283 284 278 281 284 285 282 285 284 283 283 281 282 284 280 280 281 282 282 284 285 287 285 283 283 282 278 276 276 278 279 280 280 278 277 277 277 275 275 273 274 272 272 269
289 291 289 289 287 283 281 282 283 283 283 283 282 280 280 279 281 284 285 284 283 283 283 285 285 280 278 277 277 279 279 280 281 280 280 278 279 279 275 274 272 272 267 270
289 289 289 285 286 282 283 280 279 281 280 279 277 280 281 281 282 283 284 282 282 283 285 286 283 280 278 278 278 280 279 279 280 280 280 280 280 279 278 275 274 274 273 271
275 273 271 270 269 271 275 271 271 272 274 274 277 277 278 279 280 282 283 283 284 285 283 285 284 281 279 278 278 279 280 280 280 279 280 280 280 279 279 277 275 274 273 272
270 267 266 265 265 264 264 266 266 268 268 268 274 277 277 275 276 277 279 281 284 286 286 284 284 281 280 278 277 279 280 280 280 279 279 280 280 278 277 276 274 274 274 274
265 264 264 263 263 264 264 264 264 265 265 266 269 269 270 272 272 274 277 279 278 281 282 284 282 281 280 278 276 277 279 280 280 280 279 279 279 278 275 275 274 274 274 274
263 262 263 262 262 262 263 263 263 264 266 267 267 268 270 272 271 271 271 274 273 274 275 275 278 279 280 277 277 277 278 279 280 280 280 280 279 279 277 276 275 275 274 274
261 261 261 261 260 261 264 265 263 264 263 263 264 266 267 269 272 271 270 270 271 270 270 272 274 277 277 276 276 276 277 279 280 281 281 281 281 279 278 277 276 276 275 275
259 260 260 262 263 264 262 264 265 266 266 266 264 263 263 264 267 265 266 265 269 267 267 271 275 275 276 274 273 275 277 278 279 280 280 280 279 277 277 277 276 276 275 275
260 262 263 262 264 265 265 264 264 264 265 266 264 263 263 262 262 263 262 264 263 265 264 264 265 266 267 269 271 272 273 274 274 275 276 276 276 276 276 276 276 275 275 274
260 262 262 263 262 261 261 262 262 262 261 261 261 261 261 261 262 262 263 262 262 262 262 263 264 267 267 267 269 270 270 271 272 272 273 273 272 272 272 272 272 271 271 271
Wind_Speed
6 8 4 6 7 8 9 9 6 5 5 13 10 8 8 7 4 5 5 6 5 3 3 4 5 6 6 6 6 6 9 9 9 9 9 8 8 8 9 10 10 11 11 13
6 2 2 6 9 9 6 5 12 15 22 12 6 2 2 3 5 6 7 8 6 4 3 1 3 3 5 5 6 6 7 8 8 8 8 9 9 8 9 10 10 10 12 12
6 2 5 7 8 12 5 7 7 8 12 4 3 5 4 6 8 7 7 6 6 6 5 3 1 3 5 6 5 7 6 8 6 7 8 9 9 10 9 10 10 10 10 12
5 4 4 7 3 7 8 6 16 10 8 5 5 5 5 7 8 8 7 6 6 6 6 5 3 1 1 5 5 5 6 7 7 7 7 7 8 9 8 6 8 9 10 11
3 2 9 1 5 7 8 8 16 19 14 7 4 4 9 11 9 8 9 6 6 6 6 6 5 3 4 4 5 5 5 5 5 5 6 7 8 8 5 5 7 7 8 10
1 3 5 4 4 4 2 6 6 14 8 7 7 3 5 4 8 8 9 8 8 7 6 6 5 4 5 3 4 4 4 4 4 4 6 5 6 3 4 4 6 6 8 9
3 4 11 5 7 5 7 7 3 7 7 8 7 5 2 4 6 7 8 9 8 8 7 7 5 5 5 3 4 3 3 3 4 5 5 5 5 4 3 3 4 6 9 6
3 2 11 7 5 8 3 0 2 3 5 8 7 5 4 5 6 9 10 9 9 7 7 6 6 6 6 5 5 3 4 4 3 4 3 3 4 2 3 4 4 3 3 3
12 10 1 12 5 7 2 2 3 3 5 7 7 8 7 6 7 8 10 8 7 8 7 5 5 4 6 5 5 4 4 2 3 3 4 4 3 2 2 2 2 2 3 3
2 7 14 10 10 9 7 8 6 6 4 5 7 8 8 7 7 8 7 9 6 8 8 8 6 5 4 6 6 4 5 3 2 2 2 0 1 2 2 2 3 3 2 3
7 11 8 13 11 12 9 10 9 9 8 9 8 8 8 8 9 9 8 5 7 10 8 9 8 7 6 6 6 5 3 3 3 3 4 2 1 2 2 1 2 3 3 3
9 10 6 6 4 5 10 12 14 9 8 11 11 11 8 8 9 8 9 7 8 8 8 9 9 9 8 8 8 7 7 7 5 3 3 3 3 1 3 4 3 3 5 5
9 7 8 7 3 3 6 9 11 10 12 11 8 10 6 7 7 8 7 9 11 14 13 8 10 11 11 11 11 11 10 7 5 5 5 5 4 4 5 3 2 1 2 6
9 1 11 7 12 8 11 8 2 3 6 8 9 5 8 9 3 9 12 15 13 10 10 12 12 13 12 12 12 11 10 8 7 7 6 6 6 6 5 5 4 3 6 6
14 14 18 4 3 5 4 3 5 9 7 8 8 9 7 9 12 15 12 10 9 10 11 11 12 14 12 13 13 13 10 7 7 5 5 6 5 5 5 6 7 4 1 6
3 9 16 11 20 15 7 8 10 14 9 11 8 9 13 11 10 8 7 9 11 14 17 15 16 14 14 16 15 11 11 10 9 7 5 5 5 5 4 4 4 4 4 5
5 10 2 10 14 15 15 13 12 13 10 9 11 9 7 9 9 8 8 12 14 14 13 15 18 11 15 15 16 11 10 10 13 7 8 8 8 8 8 7 8 6 6 5
14 21 12 14 10 9 9 11 10 12 12 11 9 7 8 9 13 12 12 10 10 11 11 16 13 13 15 16 16 12 11 11 11 12 10 10 10 9 8 8 7 7 5 6
23 25 15 11 11 8 9 7 8 9 6 6 6 10 10 10 11 10 6 8 11 13 16 10 12 15 15 16 16 12 13 13 12 12 11 11 10 10 9 10 10 9 8 7
2 3 3 3 2 3 6 4 5 5 5 4 6 7 8 9 6 7 8 13 13 8 5 9 13 14 14 15 20 12 12 14 14 13 12 12 12 11 10 11 10 9 9 8
5 5 5 3 4 3 4 4 4 6 5 3 6 7 7 4 4 5 6 9 4 9 9 8 10 8 8 10 13 12 11 12 13 12 12 13 12 11 10 10 10 10 9 9
4 4 3 3 3 4 4 4 4 4 4 4 5 4 4 6 5 5 6 7 3 5 3 4 6 9 7 13 10 11 11 12 11 10 10 11 11 11 11 10 11 10 9 9
2 2 3 4 4 3 6 5 4 2 3 4 4 4 4 4 3 2 2 5 2 3 2 2 4 7 11 10 8 10 11 11 11 11 10 10 10 10 10 10 10 9 10 10
1 1 1 2 1 3 1 2 2 3 4 5 5 4 2 2 3 1 2 3 3 3 2 2 4 7 8 6 6 7 8 9 9 9 9 11 8 8 8 8 8 8 8 9
2 1 1 1 0 2 2 3 4 2 3 4 1 1 1 1 2 3 3 3 4 2 2 2 3 4 5 5 5 5 6 7 8 8 8 7 7 7 7 7 7 7 7 8
2 1 1 1 1 2 2 2 2 1 2 3 2 2 3 2 2 3 3 4 3 3 2 1 1 0 2 1 2 4 4 4 3 3 4 4 5 5 6 6 6 6 7 6
2 4 3 3 3 2 2 2 2 2 2 2 2 2 2 3 2 3 3 3 3 2 3 3 2 3 3 2 1 0 0 2 4 4 4 4 3 3 4 4 5 4 4 4
Wind_Direction
260 265 260 236 218 206 214 214 174 248 264 283 276 250 246 229 191 200 246 265 270 266 307 318 343 354 336 353 349 32 16 18 16 15 19 24 38 45 49 59 62 67 68 65
289 352 343 270 238 208 231 257 267 269 283 273 269 129 265 230 207 220 234 238 238 244 228 245 309 327 341 354 1 18 30 28 19 26 25 22 29 40 50 56 63 69 73 72
274 299 325 304 222 189 185 199 171 190 225 222 279 257 227 204 197 217 229 206 200 195 180 166 174 18 7 3 20 19 30 16 24 29 37 26 31 37 35 48 54 55 65 72
260 357 359 239 142 180 195 223 213 256 240 210 245 256 237 205 186 207 207 189 159 147 145 154 149 176 23 42 32 35 41 34 19 24 40 40 43 44 38 46 54 57 57 64
123 199 286 288 196 173 176 278 208 222 246 215 240 318 272 211 193 186 178 173 153 140 136 136 131 121 91 69 72 53 41 34 40 33 55 54 52 34 26 43 53 54 51 59
44 123 223 238 168 181 142 300 195 200 218 200 130 241 254 155 156 158 141 144 146 146 141 143 147 127 115 108 96 72 36 31 29 48 67 70 78 57 47 54 75 77 75 55
202 254 283 219 156 151 79 240 184 182 198 182 187 202 186 113 139 145 141 151 152 153 165 168 143 137 131 139 104 74 28 36 36 37 61 61 66 54 61 62 82 72 68 55
146 194 279 141 83 175 206 75 178 224 202 196 217 151 171 184 169 153 155 158 164 165 163 177 168 160 160 169 140 90 80 66 38 34 45 69 69 35 47 56 45 65 83 70
193 216 275 197 207 210 105 283 213 233 227 201 206 215 195 205 192 194 178 174 173 170 165 173 175 173 164 194 149 139 97 92 74 46 35 27 62 46 42 75 91 67 82 79
54 255 229 229 261 257 223 215 246 230 225 208 213 203 217 204 196 194 195 189 169 159 179 193 193 190 193 158 158 149 157 168 151 138 152 200 170 164 151 147 128 135 132 138
265 286 281 261 229 248 242 223 227 234 219 208 219 240 212 205 206 197 194 181 178 186 191 205 179 192 182 162 158 175 178 187 193 171 184 161 127 152 114 327 156 170 189 158
215 218 191 230 190 198 219 224 230 214 231 230 200 224 210 222 203 192 193 177 190 201 195 199 184 187 179 170 171 176 196 204 205 190 185 167 138 60 142 137 96 114 157 143
225 208 218 244 249 214 213 232 232 206 219 237 225 225 196 222 206 198 189 185 199 205 208 188 193 196 184 176 177 188 202 196 192 189 181 178 173 170 181 208 167 195 150 169
222 48 284 221 249 205 211 242 172 220 230 219 233 194 210 215 177 202 204 205 203 195 196 195 195 207 186 176 182 195 200 197 189 193 192 185 192 189 171 179 201 258 229 200
230 203 239 265 287 234 207 154 220 240 235 247 216 224 192 215 219 222 222 198 190 195 205 196 202 212 172 176 185 192 200 205 197 185 190 191 185 191 193 187 199 182 131 212
216 190 239 229 255 258 206 213 225 246 226 242 222 217 222 223 236 233 198 169 169 207 211 202 211 207 177 177 186 193 202 203 189 192 185 184 182 187 189 205 202 197 192 198
110 263 213 250 237 243 227 240 229 238 241 218 231 231 195 215 231 233 220 203 210 222 209 202 216 183 177 185 186 192 193 195 196 190 191 195 196 203 207 203 210 205 210 182
214 241 231 241 249 226 235 225 230 231 231 233 230 208 208 200 226 230 229 208 208 230 217 214 198 175 182 186 187 188 190 192 194 201 197 195 201 202 200 202 201 199 202 198
217 232 240 236 250 234 254 238 226 232 231 210 203 225 225 224 228 237 212 192 206 223 238 215 191 182 188 191 188 189 190 190 193 198 201 201 202 205 201 203 205 204 194 189
141 104 132 221 283 201 252 254 256 252 242 214 233 239 241 244 235 234 213 225 219 226 217 182 186 192 195 189 190 196 199 197 196 196 197 200 204 204 207 204 204 202 196 195
186 181 200 188 257 273 249 241 253 263 266 255 238 249 250 257 227 218 236 252 227 225 220 185 187 195 195 186 190 202 202 203 202 199 197 201 203 206 203 199 198 200 201 202
157 160 230 211 208 279 271 244 226 263 269 265 266 261 266 267 254 247 233 241 264 263 214 204 189 195 186 177 188 201 208 209 208 203 202 199 199 200 204 201 204 204 205 203
146 172 179 195 197 249 307 288 276 253 274 262 252 249 238 244 227 199 277 299 263 251 211 186 194 197 183 180 189 199 208 213 212 208 203 202 203 204 202 203 205 202 203 204
26 226 172 263 129 95 359 273 290 280 249 265 256 240 239 302 301 312 17 7 344 350 246 230 210 192 178 183 189 198 210 216 214 213 210 204 202 198 197 199 202 202 205 202
243 247 90 324 132 98 346 325 318 308 314 300 306 344 341 349 172 308 331 319 344 357 319 295 275 217 186 170 175 194 207 212 212 211 206 200 187 188 194 196 199 200 200 202
5 45 115 136 75 44 358 357 330 357 4 356 7 15 357 352 343 336 348 1 10 17 6 345 305 166 115 150 194 178 172 183 177 186 168 170 175 177 186 195 198 195 196 196
61 32 26 36 23 13 25 18 23 325 352 22 293 339 342 341 353 12 19 26 26 31 29 7 31 86 96 83 52 324 131 151 155 155 159 163 166 171 174 177 183 176 171 163